Simultaneous Nadir Overpasses (SNOs) Predictions

Prediction of SNOs between METOP-B and NOAA-19 Satellite Orbit:

Table of predicted SNOs for the next 14.0 days since TLE Epoch: 11/23/2024
Index Date (METOP-B) Time (METOP-B) Lat,Lon (METOP-B) SZA (METOP-B ) Date (NOAA-19) Time (NOAA-19) Lat,Lon (NOAA-19) SZA (NOAA-19 ) Distance(km) Time Diff (sec)
1 12/03/2024 11:19:09 79.71, 93.10 111.00 12/03/2024 11:17:55 79.72, 93.05 110.94 1.06 74
2 12/03/2024 12:09:48 -79.66, -99.18 68.94 12/03/2024 12:08:46 -79.66, -99.10 68.97 1.70 62
3 12/03/2024 13:00:27 79.61, 68.63 111.15 12/03/2024 12:59:48 79.60, 68.76 111.14 2.93 39
4 12/03/2024 13:51:07 -79.59,-123.93 68.84 12/03/2024 13:50:41 -79.60,-123.98 68.86 0.92 26
5 12/03/2024 14:41:45 79.50, 44.14 111.29 12/03/2024 14:41:42 79.50, 44.16 111.29 0.39 3
6 12/03/2024 15:32:25 -79.49,-148.43 68.69 12/03/2024 15:32:34 -79.47,-148.30 68.66 3.04 9
7 12/03/2024 16:23:04 79.43, 19.37 111.39 12/03/2024 16:23:37 79.44, 19.26 111.40 2.31 33
8 12/03/2024 17:13:42 -79.35,-172.68 68.50 12/03/2024 17:14:27 -79.35,-172.66 68.47 0.45 45



Historial Predications of SNOs between METOP-B and NOAA-19
